CEST,Max TemperatureF,Mean TemperatureF,Min TemperatureF,Max Dew PointF,MeanDew PointF,Min DewpointF,Max Humidity, Mean Humidity, Min Humidity, Max Sea Level PressureIn, Mean Sea Level PressureIn, Min Sea Level PressureIn, Max VisibilityMiles, Mean VisibilityMiles, Min VisibilityMiles, Max Wind SpeedMPH, Mean Wind SpeedMPH, Max Gust SpeedMPH,PrecipitationIn, CloudCover, Events, WindDirDegrees
2012-8-1,81,68,56,57,56,54,88,62,39,30.12,30.05,29.94,6,6,6,13,4,,0.00,2,,56
2012-8-2,87,72,56,63,57,52,94,58,27,29.98,29.96,29.89,19,8,6,9,4,,0.02,1,Rain-Thunderstorm,240
2012-8-3,79,70,60,63,59,55,94,70,41,30.04,30.02,29.97,16,7,6,22,6,,0.03,1,Rain-Thunderstorm,228
2012-8-4,81,68,56,61,56,52,94,64,30,30.04,30.00,29.90,16,8,6,10,6,,0.00,2,,190
2012-8-5,86,72,59,61,59,55,88,63,33,29.95,29.88,29.78,16,7,6,9,4,,0.01,1,Rain-Thunderstorm,204
2012-8-6,82,72,62,63,60,57,94,72,36,30.04,29.90,29.82,6,6,4,17,8,,0.03,2,Rain-Thunderstorm,244
2012-8-7,71,64,56,61,54,50,94,73,40,30.18,30.13,30.01,12,6,6,22,15,25,0.03,1,Rain,235
2012-8-8,71,62,54,54,49,46,88,63,36,30.24,30.21,30.18,6,6,6,12,9,,0.00,2,,273
2012-8-9,72,61,50,57,51,46,94,71,38,30.25,30.22,30.18,6,6,3,16,6,,0.02,3,Rain,250
2012-8-10,67,61,55,55,50,45,94,70,45,30.27,30.23,30.18,12,7,6,13,5,,0.00,3,,332
2012-8-11,64,58,51,50,48,46,94,71,48,30.21,30.17,30.15,6,6,6,17,8,,0.00,4,Rain,327
2012-8-12,70,58,46,50,47,43,93,63,35,30.15,30.08,30.03,6,6,6,11,5,,0.00,2,,19
2012-8-13,70,58,45,50,45,39,93,62,33,30.09,30.05,30.01,6,6,6,9,5,,0.00,3,,49
2012-8-14,74,59,44,48,43,39,82,53,25,30.07,30.03,29.97,6,6,6,12,4,,0.00,1,,4
2012-8-15,79,63,47,50,45,39,82,52,24,30.04,30.00,29.92,,,,9,3,,0.00,,,7
2012-8-16,74,63,52,59,52,45,100,68,38,30.15,30.04,29.97,6,5,3,12,4,,0.00,6,Rain,297
2012-8-17,75,64,53,57,53,46,100,70,33,30.21,30.18,30.15,9,6,4,9,5,,0.00,2,,344
2012-8-18,82,68,53,55,53,50,94,61,29,30.24,30.22,30.17,9,9,9,9,4,,0.00,,,81
2012-8-19,92,74,56,57,53,50,82,49,19,30.24,30.20,30.08,19,15,6,12,4,,0.00,1,,165
2012-8-20,99,81,63,64,54,46,68,41,14,30.15,30.10,29.95,,,,15,7,,0.00,,,224
2012-8-21,87,76,66,66,62,57,94,61,32,30.18,30.08,29.96,6,6,6,20,7,,0.00,1,Rain-Thunderstorm,194
2012-8-22,84,74,64,66,62,57,88,68,37,30.04,29.98,29.91,16,7,5,22,8,33,0.03,2,Rain-Thunderstorm,258
2012-8-23,81,68,56,57,51,46,88,57,27,30.04,30.00,29.88,19,12,6,14,4,,0.00,1,,340
2012-8-24,82,70,57,61,57,50,88,67,42,29.92,29.83,29.76,7,6,6,21,8,29,0.00,2,Rain,212
2012-8-25,82,72,63,61,59,55,88,68,45,29.89,29.84,29.78,19,7,6,22,13,,0.02,2,Rain-Thunderstorm,217
2012-8-26,74,66,59,63,54,45,94,69,35,30.01,29.91,29.83,9,6,6,24,13,,0.00,2,Rain-Thunderstorm,238
2012-8-27,70,62,55,54,50,46,88,67,43,30.18,30.13,30.01,6,6,6,16,11,,0.00,3,,289
2012-8-28,79,64,48,52,47,45,87,56,23,30.19,30.11,30.04,19,19,19,12,5,,0.00,,,172
2012-8-29,82,72,61,59,55,50,88,61,28,30.15,30.12,30.05,6,6,6,13,8,,0.04,4,Rain,200
2012-8-30,83,70,57,61,57,52,100,67,27,30.09,30.03,29.95,19,5,2,15,6,,1.02,6,Rain-Thunderstorm,239
2012-8-31,61,58,55,59,56,52,100,92,82,30.12,30.03,29.95,11,6,4,16,11,,0.20,4,Rain,276